| time (UTC) | temp C | wind direction | speed KPH | gust KPH | rain 1hr cm | rain 24hr cm | rain mn cm | humidity % | barometer mb |
| 20260903122320 | 10 | 277 | 0.0 | 0.0 | 0.00 | 0.00 | 0.00 | 80 | 1006.6 |
| 20260903120759 | 10 | 277 | 0.0 | 0.0 | 0.00 | 0.00 | 0.00 | 81 | 1006.6 |
| 20260903115243 | 10 | 277 | 0.0 | 0.0 | 0.00 | 0.00 | 0.00 | 80 | 1006.5 |
| 20260903113743 | 10 | 277 | 0.0 | 4.8 | 0.00 | 0.00 | 0.00 | 79 | 1006.5 |
| 20260903112241 | 10 | 277 | 0.0 | 1.6 | 0.00 | 0.00 | 0.00 | 79 | 1006.3 |
| 20260903110745 | 11 | 277 | 0.0 | 1.6 | 0.00 | 0.00 | 0.00 | 78 | 1006.0 |
| 20260903105308 | 11 | 277 | 0.0 | 3.2 | 0.00 | 0.00 | 0.00 | 77 | 1006.1 |
| 20260903103747 | 11 | 288 | 4.8 | 8.0 | 0.00 | 0.00 | 0.00 | 76 | 1006.0 |
| 20260903102255 | 12 | 306 | 0.0 | 8.0 | 0.00 | 0.00 | 0.00 | 74 | 1006.0 |
| 20260903100757 | 12 | 310 | 6.4 | 11.3 | 0.00 | 0.00 | 0.00 | 73 | 1005.6 |
| 20260903095241 | 13 | 279 | 8.0 | 12.9 | 0.00 | 0.00 | 0.00 | 71 | 1005.6 |
| 20260903093742 | 14 | 274 | 11.3 | 14.5 | 0.00 | 0.00 | 0.00 | 70 | 1005.6 |
| 20260903092245 | 14 | 283 | 8.0 | 12.9 | 0.00 | 0.00 | 0.00 | 70 | 1005.7 |
| 20260903090813 | 13 | 298 | 11.3 | 11.3 | 0.00 | 0.00 | 0.00 | 75 | 1005.8 |
| 20260903085254 | 14 | 300 | 0.0 | 0.0 | 0.00 | 0.00 | 0.00 | 73 | 1005.9 |
| 20260903083757 | 14 | 300 | 0.0 | 9.7 | 0.00 | 0.00 | 0.00 | 74 | 1006.0 |
| 20260903082241 | 15 | 79 | 0.0 | 1.6 | 0.00 | 0.00 | 0.00 | 74 | 1006.0 |
| 20260903080801 | 15 | 79 | 0.0 | 3.2 | 0.00 | 0.00 | 0.00 | 72 | 1005.7 |
| 20260903075307 | 16 | 79 | 0.0 | 1.6 | 0.00 | 0.00 | 0.00 | 72 | 1005.9 |
| 20260903073746 | 16 | 79 | 4.8 | 6.4 | 0.00 | 0.00 | 0.00 | 71 | 1006.0 |
| 20260903072248 | 16 | 173 | 1.6 | 8.0 | 0.00 | 0.00 | 0.00 | 70 | 1006.3 |
| 20260903070751 | 17 | 156 | 4.8 | 6.4 | 0.00 | 0.00 | 0.00 | 68 | 1006.4 |
| 20260903065252 | 17 | 161 | 4.8 | 9.7 | 0.00 | 0.00 | 0.00 | 69 | 1006.5 |
| 20260903063752 | 17 | 198 | 4.8 | 14.5 | 0.00 | 0.00 | 0.00 | 69 | 1006.2 |
| 20260903062258 | 17 | 305 | 1.6 | 6.4 | 0.00 | 0.00 | 0.00 | 69 | 1005.4 |
| 20260903060758 | 17 | 308 | 8.0 | 8.0 | 0.00 | 0.00 | 0.00 | 68 | 1004.9 |
| 20260903055243 | 17 | 33 | 0.0 | 8.0 | 0.00 | 0.00 | 0.00 | 67 | 1004.7 |
| 20260903053747 | 18 | 16 | 6.4 | 20.9 | 0.00 | 0.00 | 0.00 | 65 | 1004.4 |
| 20260903052248 | 19 | 52 | 19.3 | 22.5 | 0.00 | 0.00 | 0.00 | 57 | 1004.9 |
| 20260903050757 | 20 | 92 | 11.3 | 14.5 | 0.00 | 0.00 | 0.00 | 54 | 1005.2 |
| 20260903045257 | 20 | 357 | 11.3 | 16.1 | 0.00 | 0.00 | 0.00 | 54 | 1003.2 |
| 20260903043820 | 20 | 352 | 9.7 | 20.9 | 0.00 | 0.00 | 0.00 | 53 | 1004.2 |
| 20260903042244 | 20 | 298 | 4.8 | 24.1 | 0.00 | 0.00 | 0.00 | 54 | 1004.8 |
| 20260903040744 | 20 | 273 | 25.7 | 32.2 | 0.00 | 0.00 | 0.00 | 48 | 1003.4 |
| 20260903035249 | 21 | 258 | 29.0 | 38.6 | 0.00 | 0.00 | 0.00 | 46 | 1004.3 |
| 20260903033751 | 21 | 263 | 37.0 | 46.7 | 0.00 | 0.00 | 0.00 | 46 | 1005.2 |
| 20260903032311 | 22 | 289 | 20.9 | 35.4 | 0.00 | 0.00 | 0.00 | 42 | 1003.9 |
| 20260903030755 | 23 | 288 | 46.7 | 46.7 | 0.00 | 0.00 | 0.00 | 40 | 1003.0 |
| 20260903025316 | 25 | 85 | 8.0 | 19.3 | 0.00 | 0.00 | 0.00 | 36 | 1002.4 |
| 20260903023757 | 25 | 83 | 12.9 | 16.1 | 0.00 | 0.00 | 0.00 | 36 | 1001.8 |
| 20260903022241 | 26 | 83 | 9.7 | 17.7 | 0.00 | 0.00 | 0.00 | 36 | 1001.6 |
| 20260903020742 | 26 | 86 | 8.0 | 19.3 | 0.00 | 0.00 | 0.00 | 35 | 1001.6 |
| 20260903015251 | 27 | 76 | 9.7 | 17.7 | 0.00 | 0.00 | 0.00 | 33 | 1001.7 |
| 20260903013751 | 27 | 98 | 9.7 | 16.1 | 0.00 | 0.00 | 0.00 | 33 | 1001.8 |
| 20260903012254 | 28 | 102 | 14.5 | 19.3 | 0.00 | 0.00 | 0.00 | 32 | 1001.9 |
| 20260903010742 | 29 | 102 | 14.5 | 14.5 | 0.00 | 0.00 | 0.00 | 31 | 1002.9 |
| 20260903005245 | 30 | 107 | 14.5 | 19.3 | 0.00 | 0.00 | 0.00 | 31 | 1003.0 |
| 20260903003751 | 30 | 113 | 16.1 | 20.9 | 0.00 | 0.00 | 0.00 | 31 | 1003.0 |
| 20260903002253 | 30 | 102 | 12.9 | 19.3 | 0.00 | 0.00 | 0.00 | 31 | 1003.0 |
| 20260903000752 | 30 | 113 | 16.1 | 24.1 | 0.00 | 0.00 | 0.00 | 29 | 1003.1 |
| 20260902235240 | 31 | 113 | 25.7 | 27.4 | 0.00 | 0.00 | 0.00 | 28 | 1003.0 |
| 20260902233802 | 31 | 113 | 20.9 | 33.8 | 0.00 | 0.00 | 0.00 | 29 | 1002.9 |
| 20260902232249 | 32 | 101 | 25.7 | 33.8 | 0.00 | 0.00 | 0.00 | 28 | 1003.0 |
| 20260902230751 | 32 | 106 | 20.9 | 33.8 | 0.00 | 0.00 | 0.00 | 29 | 1003.0 |
| 20260902225313 | 32 | 115 | 30.6 | 30.6 | 0.00 | 0.00 | 0.00 | 30 | 1003.3 |
| 20260902223737 | 32 | 113 | 27.4 | 32.2 | 0.00 | 0.00 | 0.00 | 29 | 1003.5 |
| 20260902222243 | 31 | 114 | 25.7 | 29.0 | 0.00 | 0.00 | 0.00 | 31 | 1003.5 |
| 20260902220748 | 31 | 100 | 14.5 | 32.2 | 0.00 | 0.00 | 0.00 | 32 | 1003.9 |
| 20260902215253 | 30 | 115 | 24.1 | 32.2 | 0.00 | 0.00 | 0.00 | 32 | 1003.9 |
| 20260902213755 | 31 | 118 | 30.6 | 37.0 | 0.00 | 0.00 | 0.00 | 32 | 1004.2 |
| 20260902212305 | 31 | 102 | 24.1 | 32.2 | 0.00 | 0.00 | 0.00 | 33 | 1004.2 |
| 20260902210745 | 31 | 100 | 20.9 | 35.4 | 0.00 | 0.00 | 0.00 | 33 | 1004.3 |
| 20260902205246 | 30 | 88 | 22.5 | 29.0 | 0.00 | 0.00 | 0.00 | 34 | 1003.6 |
| 20260902203755 | 30 | 123 | 27.4 | 32.2 | 0.00 | 0.00 | 0.00 | 34 | 1003.7 |
| 20260902202240 | 31 | 113 | 14.5 | 33.8 | 0.00 | 0.00 | 0.00 | 33 | 1003.9 |
| 20260902200750 | 31 | 117 | 25.7 | 41.8 | 0.00 | 0.00 | 0.00 | 33 | 1004.1 |
| 20260902195249 | 31 | 92 | 32.2 | 45.1 | 0.00 | 0.00 | 0.00 | 35 | 1004.3 |
| 20260902193749 | 30 | 95 | 27.4 | 38.6 | 0.00 | 0.00 | 0.00 | 38 | 1004.5 |
| 20260902192255 | 30 | 125 | 24.1 | 41.8 | 0.00 | 0.00 | 0.00 | 37 | 1004.7 |
| 20260902190755 | 30 | 146 | 32.2 | 45.1 | 0.00 | 0.00 | 0.00 | 38 | 1004.7 |
| 20260902185238 | 30 | 112 | 20.9 | 40.2 | 0.00 | 0.00 | 0.00 | 39 | 1004.8 |
| 20260902183742 | 30 | 89 | 19.3 | 45.1 | 0.00 | 0.00 | 0.00 | 41 | 1005.1 |
| 20260902182242 | 29 | 92 | 30.6 | 41.8 | 0.00 | 0.00 | 0.00 | 42 | 1005.2 |
| 20260902180747 | 28 | 88 | 29.0 | 38.6 | 0.00 | 0.00 | 0.00 | 44 | 1005.6 |
| 20260902175248 | 27 | 79 | 22.5 | 40.2 | 0.00 | 0.00 | 0.00 | 46 | 1005.8 |
| 20260902173752 | 26 | 75 | 24.1 | 38.6 | 0.00 | 0.00 | 0.00 | 47 | 1006.1 |
| 20260902172320 | 26 | 69 | 25.7 | 43.5 | 0.00 | 0.00 | 0.00 | 47 | 1006.4 |
| 20260902170801 | 25 | 75 | 19.3 | 40.2 | 0.00 | 0.00 | 0.00 | 49 | 1006.5 |
| 20260902165249 | 25 | 104 | 24.1 | 30.6 | 0.00 | 0.00 | 0.00 | 48 | 1006.6 |
| 20260902163749 | 24 | 107 | 20.9 | 38.6 | 0.00 | 0.00 | 0.00 | 49 | 1006.8 |
| 20260902162248 | 23 | 95 | 19.3 | 35.4 | 0.00 | 0.00 | 0.00 | 50 | 1006.9 |
| 20260902160752 | 23 | 79 | 35.4 | 35.4 | 0.00 | 0.00 | 0.00 | 50 | 1007.0 |
| 20260902155252 | 22 | 95 | 24.1 | 35.4 | 0.00 | 0.00 | 0.00 | 52 | 1007.1 |
| 20260902153753 | 21 | 92 | 24.1 | 30.6 | 0.00 | 0.00 | 0.00 | 53 | 1007.3 |
| 20260902152258 | 21 | 84 | 17.7 | 22.5 | 0.00 | 0.00 | 0.00 | 54 | 1007.5 |
| 20260902150819 | 21 | 92 | 20.9 | 30.6 | 0.00 | 0.00 | 0.00 | 55 | 1007.9 |
| 20260902145305 | 20 | 100 | 22.5 | 32.2 | 0.00 | 0.00 | 0.00 | 56 | 1007.8 |
| 20260902143745 | 20 | 81 | 19.3 | 27.4 | 0.00 | 0.00 | 0.00 | 57 | 1007.8 |
| 20260902142245 | 19 | 74 | 16.1 | 35.4 | 0.00 | 0.00 | 0.00 | 57 | 1007.9 |
| 20260902140752 | 19 | 61 | 16.1 | 33.8 | 0.00 | 0.00 | 0.00 | 59 | 1007.9 |
| 20260902135253 | 18 | 46 | 14.5 | 29.0 | 0.00 | 0.00 | 0.00 | 60 | 1008.2 |
| 20260902133755 | 17 | 59 | 25.7 | 25.7 | 0.00 | 0.00 | 0.00 | 61 | 1008.2 |
| 20260902132258 | 17 | 42 | 9.7 | 24.1 | 0.00 | 0.00 | 0.00 | 62 | 1008.3 |
| 20260902130758 | 16 | 69 | 4.8 | 19.3 | 0.00 | 0.00 | 0.00 | 63 | 1008.4 |
| 20260902125241 | 16 | 67 | 8.0 | 20.9 | 0.00 | 0.00 | 0.00 | 62 | 1008.5 |
| 20260902123741 | 17 | 42 | 11.3 | 19.3 | 0.00 | 0.00 | 0.00 | 61 | 1008.6 |